Lexington Weather

Lexington, Massachusetts, USA

43°F
9/20/2020 10:48pm 
  • Lexington Conditions: Clear
  • Temperature: 43.2°F / 6.2°CColder 1.6°F than last hour.
  • Dew Point: 37.0°FDecreased 0.9°Fsince last hour.
  • Relative Humidity: 79%Increased 2.0% since last hour.
  • Wind: Calm, 10-min avg: Calm, gust: None
  • Barometer: 30.53 in Steady
  • Visibility: 10 miles
  • Rain Today: 0.00 in
  •   
Southeast Middlesex County - Special Weather Statement - Special Weather Statement
 - SEE ALL NEARBY ALERTS -

Regional Weather Roundup
for Boston / Norton, MA

        
000
ASUS41 KBOX 171604
RWRBOX

REGIONAL WEATHER ROUNDUP
NATIONAL WEATHER SERVICE BOSTON/NORTON MA
1200 PM EDT THU SEP 17 2020

NOTE:  "FAIR" INDICATES FEW OR NO CLOUDS BELOW 12,000 FEET WITH NO 
SIGNIFICANT WEATHER AND/OR OBSTRUCTIONS TO VISIBILITY.

MAZALL-171700-
EASTERN MASSACHUSETTS
  
CITY           SKY/WX    TMP DP  RH WIND       PRES   REMARKS
BOSTON         PTSUNNY   74  52  46 W8        30.00F                  
BEVERLY        MOSUNNY   72  54  53 W12G18    30.00F                  
LAWRENCE       MOSUNNY   71  57  61 W7        30.02F                  
BEDFORD        MOSUNNY   73  55  53 W6        30.00F                  
BLUE HILL        N/A     72  56  57 SW8G17    30.01F                  
NORWOOD        MOSUNNY   76  57  51 W12       30.00F                  
MARSHFIELD     MOSUNNY   75  59  57 SW8G17    30.01F                  
PLYMOUTH       MOSUNNY   74  58  57 SW18G24   30.02F                  
TAUNTON        MOSUNNY   75  58  55 SW6       30.02F                  
NEW BEDFORD    MOSUNNY   75  60  59 SW12      30.02F                  
$$

MAZALL-171700-
CAPE COD AND THE ISLANDS
  
CITY           SKY/WX    TMP DP  RH WIND       PRES   REMARKS
FALMOUTH       MOSUNNY   72  61  68 W14       30.04F                  
HYANNIS        CLOUDY    73  62  68 SW12      30.03F                  
CHATHAM        CLOUDY    72  65  78 SW8       30.06F                  
PROVINCETOWN     N/A    N/A N/A N/A SW10      30.04                   
NANTUCKET      MOSUNNY   72  65  78 S10       30.06F                  
MARTHAS VNYRD  PTSUNNY   74  63  68 S13       30.05F                  
$$
 
MAZALL-171700-
CENTRAL AND WESTERN MASSACHUSETTS
  
CITY           SKY/WX    TMP DP  RH WIND       PRES   REMARKS
WORCESTER      MOSUNNY   69  55  60 W7        30.04F                  
FITCHBURG      MOSUNNY   74  53  48 W9        30.02F                  
ORANGE         MOSUNNY   70  55  59 SW6       30.03F                  
SPRINGFIELD    PTSUNNY   70  55  58 S6        30.01F                  
WESTFIELD      MOSUNNY   71  58  63 VRB5      30.02F                  
NORTH ADAMS    PTSUNNY   69  55  60 VRB3      30.03F                  
PITTSFIELD     MOSUNNY   68  56  65 MISG      30.04F                  
$$
 
RIZALL-171700-
RHODE ISLAND
  
CITY           SKY/WX    TMP DP  RH WIND       PRES   REMARKS
PROVIDENCE     PTSUNNY   75  57  53 SW10G23   30.02F                  
NEWPORT        PTSUNNY   73  61  65 S10       30.03F                  
BLOCK ISLAND   PTSUNNY   70  63  78 S8        30.06F                  
SMITHFIELD     MOSUNNY   71  58  63 W8G17     30.03F                  
WESTERLY       PTSUNNY   72  59  63 S9        30.05F                  
$$
 
CTZALL-171700-
CONNECTICUT
  
CITY           SKY/WX    TMP DP  RH WIND       PRES   REMARKS
BRADLEY INTL   PTSUNNY   72  55  55 SW8       30.02F                  
HARTFORD       PTSUNNY   73  55  53 SW6       30.02F                  
BRIDGEPORT     PTSUNNY   72  60  66 SW10      30.04F                  
DANBURY        MOSUNNY   70  58  65 SW6       30.05F                  
GROTON         PTSUNNY   71  63  75 S8        30.04F                  
NEW HAVEN      PTSUNNY   73  62  68 SW8       30.03F                  
CHESTER        NOT AVBL                                               
MERIDEN        PTSUNNY   72  55  55 VRB6      30.03F                  
WILLIMANTIC    PTSUNNY   72  56  57 SW8       30.03F                  
OXFORD         PTSUNNY   68  58  70 VRB6      30.05F                  
$$

MEZ002-015-021-024-NHZ003-005-008-011-012-014-VTZ005-008-171700-
NORTHERN NEW ENGLAND
  
CITY           SKY/WX    TMP DP  RH WIND       PRES   REMARKS
PORTLAND ME    PTSUNNY   73  55  53 NE3       29.99S                  
BANGOR ME      MOSUNNY   72  51  47 NW8       29.98S                  
CONCORD NH     MOSUNNY   70  54  56 VRB5      30.00F                  
MANCHESTER NH  PTSUNNY   73  54  51 SW5       29.99F                  
NASHUA NH      MOSUNNY   73  57  57 NW5       30.01F                  
PORTSMOUTH NH  PTSUNNY   71  53  52 SW8       29.98                   
JAFFREY NH     MOSUNNY   67  54  63 VRB5      30.03F                  
KEENE NH       MOSUNNY   69  55  60 S6        30.02F                  
BURLINGTON VT  CLOUDY    60  50  69 N5        30.06S                  
MT. WASHINGTON FOG       45  45 100 W33G39      N/A  VSB 0            
$$

NYZ052-076-171700-
EASTERN NEW YORK
  
CITY           SKY/WX    TMP DP  RH WIND       PRES   REMARKS
ALBANY         CLOUDY    65  55  70 SE8       30.03F                  
NEW YORK CITY  CLOUDY    74  58  57 SW9       30.04S                  
$$
 
ANZALL-171700-
MARINE OBSERVATIONS
  
STATION/POSITION TIME  TEMP    WIND        PRES    VSBY  WAVE
                       AIR SEA DIR/SP/G                  HT/PER
                 (UTC) (F)     (DEG/KT/KT) (MB)    (MI)  (FT/S)
BOSTON BUOY      1550   67 65  250/  6/  8 1015.0F         3/10
BUZZARDS BAY     1500          250/  6/  6 1019.0F
NANTUCKET SOUND  1540      70  200/ 12/ 16   N/A
MASS BAY-STELLWA 1504   64     260/ 10/ 12 1014.4F  1 7/8  4/11
ISLE OF SHOALS   1500   63     240/ 11/ 11 1015.8F
S OF BLOCK IS    1526      70                N/A           4/13
$$

......................KEY.........................
  SKY/WX - SKY CONDITION/PRESENT WEATHER
  TMP    - TEMPERATURE IN FAHRENHEIT
  DWPT   - DEWPOINT IN FAHRENHEIT
  RH     - RELATIVE HUMIDITY IN PERCENT
  WIND   - DIRECTION AND SPEED IN MPH
  PRES   - MEAN SEA LEVEL PRESSURE IN INCHES OF HG
  WCI    - WIND CHILL INDEX
  VSB    - VISIBILITY IN MILES
  HX     - HEAT INDEX
  TC     - TEMPERATURE IN CELSIUS
  VRB    - VARIABLE WIND DIRECTION
  N/A    - NOT AVAILABLE
  
      

Other recent Regional Weather Roundups

Sun Sep 20, 10:04pm

Sun Sep 20, 9:04pm

Sun Sep 20, 8:05pm

Sun Sep 20, 7:04pm

Sun Sep 20, 6:04pm

Sun Sep 20, 5:04pm

Sun Sep 20, 4:04pm

Sun Sep 20, 3:05pm

Sun Sep 20, 2:05pm

Sun Sep 20, 1:04pm

Sun Sep 20, 12:04pm

Sun Sep 20, 11:04am

Sun Sep 20, 10:04am

Sun Sep 20, 9:04am

Sun Sep 20, 8:04am

Sun Sep 20, 7:04am

Sun Sep 20, 6:04am

Sun Sep 20, 5:04am

Sun Sep 20, 4:04am

Sun Sep 20, 3:05am

Sun Sep 20, 2:04am

Sun Sep 20, 1:04am

Sun Sep 20, 12:04am

Sat Sep 19, 11:04pm

Sat Sep 19, 10:04pm

Sat Sep 19, 9:04pm

Sat Sep 19, 8:05pm

Sat Sep 19, 7:04pm

Sat Sep 19, 6:05pm

Sat Sep 19, 5:04pm

Sat Sep 19, 4:04pm

Sat Sep 19, 3:04pm

Sat Sep 19, 2:04pm

Sat Sep 19, 1:05pm

Sat Sep 19, 12:04pm

Sat Sep 19, 11:04am

Sat Sep 19, 10:04am

Sat Sep 19, 9:05am

Sat Sep 19, 8:04am

Sat Sep 19, 7:04am

Sat Sep 19, 6:04am

Sat Sep 19, 5:04am

Sat Sep 19, 4:04am

Sat Sep 19, 3:04am

Sat Sep 19, 2:04am

Sat Sep 19, 1:04am

Sat Sep 19, 12:04am

Fri Sep 18, 11:05pm

Fri Sep 18, 10:04pm

Fri Sep 18, 9:04pm

Fri Sep 18, 8:04pm

Fri Sep 18, 7:04pm

Fri Sep 18, 6:04pm

Fri Sep 18, 5:05pm

Fri Sep 18, 4:04pm

Fri Sep 18, 3:05pm

Fri Sep 18, 2:04pm

Fri Sep 18, 1:04pm

Fri Sep 18, 12:04pm

Fri Sep 18, 11:05am

Fri Sep 18, 10:05am

Fri Sep 18, 9:04am

Fri Sep 18, 8:04am

Fri Sep 18, 7:04am

Fri Sep 18, 6:04am

Fri Sep 18, 5:04am

Fri Sep 18, 4:04am

Fri Sep 18, 3:04am

Fri Sep 18, 2:04am

Fri Sep 18, 1:04am

Fri Sep 18, 12:04am

Thu Sep 17, 11:05pm

Thu Sep 17, 10:04pm

Thu Sep 17, 9:04pm

Thu Sep 17, 8:05pm

Thu Sep 17, 7:04pm

Thu Sep 17, 6:04pm

Thu Sep 17, 5:04pm

Thu Sep 17, 4:04pm

Thu Sep 17, 3:05pm

Thu Sep 17, 2:04pm

Thu Sep 17, 1:04pm

Thu Sep 17, 11:04am

Thu Sep 17, 10:04am

Thu Sep 17, 9:04am

Thu Sep 17, 8:04am

Thu Sep 17, 7:04am

Thu Sep 17, 6:04am

Thu Sep 17, 5:04am

Thu Sep 17, 4:04am

Thu Sep 17, 3:04am

Thu Sep 17, 2:05am

Thu Sep 17, 1:05am

Thu Sep 17, 12:04am

Wed Sep 16, 11:04pm

Wed Sep 16, 10:04pm

Wed Sep 16, 9:04pm

Wed Sep 16, 8:05pm

Wed Sep 16, 7:04pm

Wed Sep 16, 6:04pm

Wed Sep 16, 5:04pm

Wed Sep 16, 4:04pm

Wed Sep 16, 3:04pm

Wed Sep 16, 2:04pm

Wed Sep 16, 1:04pm

Wed Sep 16, 12:04pm

Wed Sep 16, 11:04am

Wed Sep 16, 10:04am

Wed Sep 16, 9:04am

Wed Sep 16, 8:04am

Wed Sep 16, 7:04am

Wed Sep 16, 6:04am

Wed Sep 16, 5:04am

Wed Sep 16, 4:04am

Wed Sep 16, 3:04am

Wed Sep 16, 2:04am

Wed Sep 16, 1:04am

Wed Sep 16, 12:05am

Tue Sep 15, 11:04pm

Tue Sep 15, 10:04pm

Tue Sep 15, 9:04pm

Tue Sep 15, 8:04pm

Tue Sep 15, 7:04pm

Tue Sep 15, 6:04pm

Tue Sep 15, 5:04pm

Tue Sep 15, 4:05pm

Tue Sep 15, 3:04pm

Tue Sep 15, 2:04pm

Tue Sep 15, 1:04pm

Tue Sep 15, 12:04pm

Tue Sep 15, 11:04am

Tue Sep 15, 10:04am

Tue Sep 15, 9:04am

Tue Sep 15, 8:04am

Tue Sep 15, 7:04am

Tue Sep 15, 6:04am

Tue Sep 15, 5:04am

Tue Sep 15, 4:04am

Tue Sep 15, 3:04am

Tue Sep 15, 2:04am

Tue Sep 15, 1:04am

Tue Sep 15, 12:05am

Mon Sep 14, 11:04pm

Mon Sep 14, 10:04pm

Mon Sep 14, 9:04pm

Mon Sep 14, 8:04pm

Mon Sep 14, 7:04pm

Mon Sep 14, 6:04pm

Mon Sep 14, 5:04pm

Mon Sep 14, 4:05pm

Mon Sep 14, 3:04pm

Mon Sep 14, 2:05pm

Mon Sep 14, 1:04pm

Mon Sep 14, 12:04pm

Mon Sep 14, 11:04am

Mon Sep 14, 10:05am

Mon Sep 14, 9:04am

Mon Sep 14, 8:04am

Mon Sep 14, 7:04am

Mon Sep 14, 6:04am

Mon Sep 14, 5:04am

Mon Sep 14, 4:04am

Mon Sep 14, 3:04am

Mon Sep 14, 2:04am

Mon Sep 14, 1:04am

Mon Sep 14, 12:04am

Sun Sep 13, 11:05pm

Meta data:

ID: 151cb891-2581-42fc-a621-4201bc0a692d
Link: https://api.weather.gov/products/151cb891-2581-42fc-a621-4201bc0a692d